Location: Blue Mountain Vista Observatory
(40.6992°N, 75.9422°W)
Time: 07:22:20
(UTC-05:00)

IDEFIX/ARIANE 42P - Visible Passes

Search period start: 27 January 2015 00:00
Search period end: 06 February 2015 00:00
Orbit: 786 x 803 km, 98.3° (Epoch: 26 January)

Date Brightness Start Highest point End Pass type
(mag) Time Alt. Az. Time Alt. Az. Time Alt. Az.
27 Jan 3.2 18:32:09 10° SE 18:36:43 33° ENE 18:41:25 10° N visible
27 Jan 4.3 20:11:46 10° SSW 20:16:22 30° W 20:20:56 10° NW visible
28 Jan 5.8 06:47:32 10° ENE 06:49:29 12° E 06:51:47 10° ESE visible
28 Jan 3.8 18:05:15 10° ESE 18:08:46 19° ENE 18:12:28 10° NNE visible
28 Jan 3.2 19:42:53 10° S 19:48:00 56° W 19:53:10 10° NNW visible
29 Jan 2.4 19:14:33 10° SSE 19:19:46 81° ENE 19:25:04 10° N visible
29 Jan 5.5 20:58:15 10° WSW 21:00:10 12° W 21:01:45 10° WNW visible
30 Jan 2.8 18:46:44 10° SE 18:51:39 45° ENE 18:56:41 10° N visible
30 Jan 4.8 20:27:29 10° SW 20:31:33 22° W 20:35:30 10° NW visible
31 Jan 3.5 18:19:27 10° ESE 18:23:39 26° ENE 18:27:58 10° NNE visible
31 Jan 3.8 19:58:12 10° SSW 20:03:06 40° W 20:08:01 10° NNW visible
01 Feb 4.1 17:52:58 10° E 17:55:43 15° ENE 17:58:43 10° NNE visible
01 Feb 2.7 19:29:35 10° S 19:34:48 73° WSW 19:40:05 10° NNW visible
02 Feb 2.5 19:01:28 10° SSE 19:06:37 62° ENE 19:11:51 10° N visible
02 Feb 5.2 20:43:34 10° SW 20:46:47 16° W 20:49:47 10° NW visible
03 Feb 3.1 18:33:53 10° SE 18:38:33 35° ENE 18:43:19 10° N visible
03 Feb 4.4 20:13:43 10° SSW 20:18:14 29° W 20:22:43 10° NW visible
04 Feb 3.8 18:06:54 10° ESE 18:10:35 20° ENE 18:14:26 10° NNE visible
04 Feb 3.3 19:44:45 10° S 19:49:51 52° W 19:55:00 10° NNW visible
05 Feb 2.5 19:16:22 10° SSE 19:21:38 86° ENE 19:26:56 10° NNW visible
05 Feb 5.6 21:00:38 10° WSW 21:02:04 11° W 21:03:08 10° WNW visible
